User: anonymous   Login
Location: Unspecified
(0.0000°N, 0.0000°E)
Time: 00:01:31
(UTC+00:00)
Language:

STARLINK-32298 - Orbit

View from above orbital plane
View from above orbital plane
View from above satellite
View from above satellite

Ground track
Ground track

The orbit is defined by the following mean orbital elements,

1 61525U          26145.28091637 +.00000000 +00000-0 +69034-4 0 00002
2 61525  53.1597 146.3397 0001247  85.1276 274.9867 15.30207992    08
Epoch (UTC): 25 May 2026 06:44:31
Eccentricity: 0.0001247
inclination: 53.1597°
perigee height: 474 km
apogee height: 476 km
right ascension of ascending node: 146.3397°
argument of perigee: 85.1276°
revolutions per day: 15.30207992
mean anomaly at epoch: 274.9867°

The dashed part of the orbit path shows where the satellite is in the earth's shadow,  

DLR